Time,TemperatureF,DewpointF,PressureIn,WindDirection,WindDirectionDegrees,WindSpeedMPH,WindSpeedGustMPH,Humidity,HourlyPrecipIn,Conditions,Clouds,dailyrainin,SoftwareType,DateUTC
2013-12-30 00:53:00,42.0,42.0,30.24,East,90,0.0,0.0,99,0.00,,,0.01,,2013-12-30 06:53:00,
2013-12-30 01:02:00,42.0,42.0,30.24,East,90,0.0,0.0,99,0.00,,,0.01,,2013-12-30 07:02:00,
2013-12-30 01:11:00,42.0,42.0,30.24,East,90,0.0,0.0,99,0.00,,,0.01,,2013-12-30 07:11:00,
2013-12-30 01:21:00,42.0,42.0,30.24,East,90,0.0,0.0,99,0.00,,,0.01,,2013-12-30 07:21:00,
2013-12-30 01:52:00,43.0,43.0,30.22,East,90,0.0,0.0,99,0.00,,,0.01,,2013-12-30 07:52:00,
2013-12-30 02:02:00,43.0,43.0,30.22,East,90,0.0,0.0,99,0.00,,,0.01,,2013-12-30 08:02:00,
2013-12-30 02:22:00,44.0,44.0,30.22,East,90,0.0,0.0,99,0.00,,,0.01,,2013-12-30 08:22:00,
2013-12-30 02:32:00,44.0,44.0,30.22,East,90,0.0,0.0,99,0.00,,,0.01,,2013-12-30 08:32:00,
2013-12-30 02:42:00,44.0,44.0,30.22,East,90,0.0,0.0,99,0.00,,,0.01,,2013-12-30 08:42:00,
2013-12-30 02:52:00,44.0,44.0,30.22,East,90,0.0,0.0,99,0.00,,,0.01,,2013-12-30 08:52:00,
2013-12-30 03:11:00,44.0,44.0,30.22,East,90,0.0,0.0,99,0.00,,,0.00,,2013-12-30 09:11:00,
2013-12-30 03:22:00,44.0,44.0,30.22,East,90,0.0,0.0,99,0.00,,,0.00,,2013-12-30 09:22:00,
2013-12-30 03:33:00,44.0,44.0,30.22,East,90,0.0,0.0,99,0.00,,,0.00,,2013-12-30 09:33:00,
2013-12-30 03:53:00,44.0,44.0,30.22,East,90,0.0,0.0,99,0.00,,,0.00,,2013-12-30 09:53:00,
2013-12-30 04:03:00,44.0,44.0,30.22,East,90,0.0,0.0,99,0.00,,,0.00,,2013-12-30 10:03:00,
2013-12-30 04:23:00,44.0,44.0,30.23,East,90,0.0,0.0,99,0.00,,,0.00,,2013-12-30 10:23:00,
2013-12-30 04:52:00,44.0,44.0,30.22,East,90,0.0,0.0,99,0.00,,,0.00,,2013-12-30 10:52:00,
2013-12-30 05:02:00,44.0,44.0,30.22,East,90,0.0,0.0,99,0.00,,,0.00,,2013-12-30 11:02:00,
2013-12-30 05:22:00,45.0,44.0,30.22,East,90,0.0,0.0,98,0.00,,,0.00,,2013-12-30 11:22:00,
2013-12-30 05:53:00,44.0,43.0,30.22,East,90,0.0,0.0,98,0.00,,,0.00,,2013-12-30 11:53:00,
2013-12-30 06:12:00,45.0,44.0,30.23,East,90,0.0,0.0,98,0.00,,,0.00,,2013-12-30 12:12:00,
2013-12-30 06:22:00,45.0,44.0,30.23,East,90,0.0,0.0,98,0.00,,,0.00,,2013-12-30 12:22:00,
2013-12-30 06:42:00,45.0,44.0,30.23,East,90,0.0,0.0,98,0.00,,,0.00,,2013-12-30 12:42:00,
2013-12-30 06:52:00,45.0,44.0,30.23,East,90,0.0,0.0,98,0.00,,,0.00,,2013-12-30 12:52:00,
2013-12-30 07:11:00,45.0,44.0,30.24,East,90,0.0,0.0,98,0.00,,,0.00,,2013-12-30 13:11:00,
2013-12-30 07:21:00,45.0,44.0,30.24,East,90,0.0,0.0,98,0.00,,,0.00,,2013-12-30 13:21:00,
2013-12-30 07:52:00,46.0,45.0,30.25,NNE,27,0.0,1.0,98,0.00,,,0.00,,2013-12-30 13:52:00,
2013-12-30 08:12:00,47.0,46.0,30.26,NNE,27,0.0,0.0,98,0.00,,,0.00,,2013-12-30 14:12:00,
2013-12-30 08:22:00,47.0,46.0,30.26,NNE,27,0.0,0.0,98,0.00,,,0.00,,2013-12-30 14:22:00,
2013-12-30 08:52:00,47.0,46.0,30.28,NNE,32,0.0,0.0,98,0.00,,,0.00,,2013-12-30 14:52:00,
2013-12-30 09:21:00,49.0,48.0,30.30,NNE,32,0.0,0.0,96,0.00,,,0.00,,2013-12-30 15:21:00,
2013-12-30 09:54:00,50.0,48.0,30.32,NNE,13,0.0,0.0,94,0.00,,,0.00,,2013-12-30 15:54:00,
2013-12-30 10:13:00,51.0,49.0,30.33,North,9,2.0,7.0,93,0.00,,,0.00,,2013-12-30 16:13:00,
2013-12-30 10:23:00,51.0,49.0,30.33,North,9,2.0,7.0,93,0.00,,,0.00,,2013-12-30 16:23:00,
2013-12-30 10:33:00,51.0,49.0,30.33,North,9,2.0,7.0,93,0.00,,,0.00,,2013-12-30 16:33:00,
2013-12-30 10:52:00,51.0,49.0,30.31,North,8,4.0,7.0,93,0.00,,,0.00,,2013-12-30 16:52:00,
2013-12-30 11:21:00,52.0,50.0,30.30,NNE,32,1.0,6.0,92,0.00,,,0.00,,2013-12-30 17:21:00,
2013-12-30 11:43:00,52.0,49.0,30.31,North,7,6.0,8.0,91,0.00,,,0.00,,2013-12-30 17:43:00,
2013-12-30 11:52:00,52.0,49.0,30.31,North,7,6.0,8.0,91,0.00,,,0.00,,2013-12-30 17:52:00,
2013-12-30 12:12:00,52.0,49.0,30.29,North,355,1.0,7.0,90,0.00,,,0.00,,2013-12-30 18:12:00,
2013-12-30 12:22:00,52.0,49.0,30.29,North,355,1.0,7.0,90,0.00,,,0.00,,2013-12-30 18:22:00,
2013-12-30 12:43:00,53.0,50.0,30.27,ENE,64,0.0,7.0,89,0.00,,,0.00,,2013-12-30 18:43:00,
2013-12-30 12:52:00,53.0,50.0,30.27,ENE,64,0.0,7.0,89,0.00,,,0.00,,2013-12-30 18:52:00,
2013-12-30 13:22:00,53.0,50.0,30.24,ESE,105,2.0,6.0,89,0.00,,,0.00,,2013-12-30 19:22:00,
2013-12-30 13:42:00,54.0,50.0,30.25,NE,40,5.0,8.0,87,0.00,,,0.00,,2013-12-30 19:42:00,
2013-12-30 13:52:00,54.0,50.0,30.25,NE,40,5.0,8.0,87,0.00,,,0.00,,2013-12-30 19:52:00,
2013-12-30 14:22:00,53.0,50.0,30.26,NNE,26,5.0,8.0,89,0.00,,,0.00,,2013-12-30 20:22:00,
2013-12-30 14:42:00,53.0,50.0,30.23,NNE,16,0.0,6.0,89,0.00,,,0.00,,2013-12-30 20:42:00,
2013-12-30 14:52:00,53.0,50.0,30.23,NNE,16,0.0,6.0,89,0.00,,,0.00,,2013-12-30 20:52:00,
2013-12-30 15:21:00,53.0,50.0,30.25,NW,322,2.0,8.0,90,0.00,,,0.00,,2013-12-30 21:21:00,
2013-12-30 15:54:00,52.0,50.0,30.26,North,2,4.0,8.0,93,0.00,,,0.00,,2013-12-30 21:54:00,
2013-12-30 16:03:00,52.0,50.0,30.26,North,2,4.0,8.0,93,0.00,,,0.00,,2013-12-30 22:03:00,
2013-12-30 16:23:00,51.0,49.0,30.27,NNE,22,2.0,5.0,92,0.00,,,0.00,,2013-12-30 22:23:00,
2013-12-30 16:53:00,50.0,48.0,30.28,NW,313,1.0,7.0,93,0.00,,,0.00,,2013-12-30 22:53:00,
2013-12-30 17:02:00,50.0,48.0,30.28,NW,313,1.0,7.0,93,0.00,,,0.00,,2013-12-30 23:02:00,
2013-12-30 17:22:00,50.0,48.0,30.29,NNW,335,0.0,6.0,94,0.00,,,0.00,,2013-12-30 23:22:00,
2013-12-30 17:42:00,49.0,47.0,30.30,NNE,12,5.0,8.0,94,0.00,,,0.00,,2013-12-30 23:42:00,
2013-12-30 17:53:00,49.0,47.0,30.30,NNE,12,5.0,8.0,94,0.00,,,0.00,,2013-12-30 23:53:00,
2013-12-30 18:21:00,49.0,47.0,30.32,North,8,0.0,6.0,94,0.00,,,0.00,,2013-12-31 00:21:00,
2013-12-30 18:52:00,48.0,46.0,30.34,NE,44,4.0,8.0,94,0.00,,,0.00,,2013-12-31 00:52:00,
2013-12-30 19:21:00,48.0,46.0,30.35,NNE,22,5.0,10.0,93,0.00,,,0.00,,2013-12-31 01:21:00,
2013-12-30 19:52:00,48.0,46.0,30.36,NNE,30,2.0,5.0,93,0.00,,,0.00,,2013-12-31 01:52:00,
2013-12-30 20:12:00,48.0,46.0,30.35,NNE,27,0.0,0.0,93,0.00,,,0.00,,2013-12-31 02:12:00,
2013-12-30 20:22:00,48.0,46.0,30.35,NNE,27,0.0,0.0,93,0.00,,,0.00,,2013-12-31 02:22:00,
2013-12-30 20:32:00,48.0,46.0,30.35,NNE,27,0.0,0.0,93,0.00,,,0.00,,2013-12-31 02:32:00,
2013-12-30 20:52:00,47.0,45.0,30.38,NNE,18,1.0,3.0,94,0.00,,,0.00,,2013-12-31 02:52:00,
2013-12-30 21:10:00,47.0,45.0,30.40,NNE,28,0.0,6.0,93,0.00,,,0.00,,2013-12-31 03:10:00,
2013-12-30 21:11:00,47.0,45.0,30.39,NNE,29,3.0,7.0,93,0.00,,,0.00,,2013-12-31 03:11:00,
2013-12-30 21:22:00,47.0,45.0,30.39,NNE,29,3.0,7.0,93,0.00,,,0.00,,2013-12-31 03:22:00,
2013-12-30 21:43:00,47.0,45.0,30.40,NNE,28,0.0,6.0,93,0.00,,,0.00,,2013-12-31 03:43:00,
2013-12-30 21:53:00,47.0,45.0,30.40,NNE,28,0.0,6.0,93,0.00,,,0.00,,2013-12-31 03:53:00,
2013-12-30 22:03:00,47.0,45.0,30.40,NNE,28,0.0,6.0,93,0.00,,,0.00,,2013-12-31 04:03:00,
2013-12-30 22:43:00,46.0,44.0,30.44,NE,52,0.0,0.0,94,0.00,,,0.00,,2013-12-31 04:43:00,
2013-12-30 22:53:00,46.0,44.0,30.44,NE,52,0.0,0.0,94,0.00,,,0.00,,2013-12-31 04:53:00,
2013-12-30 23:12:00,46.0,44.0,30.43,NE,37,0.0,6.0,94,0.00,,,0.00,,2013-12-31 05:12:00,
2013-12-30 23:22:00,46.0,44.0,30.43,NE,37,0.0,6.0,94,0.00,,,0.00,,2013-12-31 05:22:00,
2013-12-30 23:42:00,46.0,44.0,30.43,NE,56,0.0,8.0,92,0.00,,,0.00,,2013-12-31 05:42:00,
2013-12-30 23:53:00,46.0,44.0,30.43,NE,56,0.0,8.0,92,0.00,,,0.00,,2013-12-31 05:53:00,